Regional Weather Roundup
Issued by NWS

Home | Current Version | Previous Version | Text Only | Print | Product List | Glossary Off
Versions: 1 2 3 4 5 6 7 8 9 10 11 12 13 14 15 16 17 18 19 20 21 22 23 24 25 26 27 28

000
ASUS45 KBOU 191810
RWRCO

WEATHER ROUNDUP FOR COLORADO
NATIONAL WEATHER SERVICE DENVER/BOULDER CO
1100 AM MST FRI JAN 19 2018

NOTE: "FAIR" INDICATES FEW OR NO CLOUDS BELOW 12000 FEET WITH NO
SIGNIFICANT WEATHER AND/OR OBSTRUCTIONS TO VISIBILITY.

COZ001>005-013-030-031-191900-
...NORTHWEST COLORADO...

CITY           SKY/WX    TMP DP  RH WIND       PRES   REMARKS
CRAIG          FAIR      33  20  58 SE6       29.95S WCI  28
HAYDEN         FAIR     N/A N/A N/A VRB6      29.96F
MEEKER         FAIR      50  20  30 SW20G26   29.95F
RABBIT EARS PA FAIR      36  21  55 W10G22    30.02F
STEAMBOAT SPGS FAIR      23  14  68 CALM      29.96F
WALDEN         FAIR      45  14  29 S17G24    29.94S
$$

COZ006>008-011-191900-
...WEST CENTRAL VALLEYS...

CITY           SKY/WX    TMP DP  RH WIND       PRES   REMARKS
GRAND JUNCTION FAIR      35  22  58 W7        30.03F WCI  29
MONTROSE       FAIR      43  17  35 CALM      30.06F
EAGLE          FAIR      29  17  61 W3        30.04F
RIFLE          FAIR      35  19  52 CALM      30.03F
DELTA          FAIR      43  19  37 SE6       30.06F
NUCLA          FAIR      39  19  45 CALM      30.11F
$$

COZ017>023-064>068-191900-
...SOUTHWEST COLORADO...

CITY           SKY/WX    TMP DP  RH WIND       PRES   REMARKS
DURANGO        FAIR      40  20  44 CALM      30.14F
CORTEZ         FAIR      47  20  34 CALM      30.12S
PAGOSA SPRINGS FAIR      43  14  31 CALM      30.16F
TELLURIDE      FAIR      47  15  27 CALM      30.14F
WOLF CREEK PAS FAIR      28   9  43 SW16G22   30.26F WCI  17
$$

COZ009-010-012-014-032>034-037-058>063-191900-
...CENTRAL COLORADO...

CITY           SKY/WX    TMP DP  RH WIND       PRES   REMARKS
ASPEN          FAIR      40  18  41 SE5       30.00F
BUENA VISTA    FAIR      49   8  19 SE5       30.01F
COPPER MTN     NOT AVBL
BERTHOUD PASS  FAIR      30  19  64 W46G69    30.03S WCI  12
COTTONWOOD PAS   N/A     48  12  23 W8G21     30.06F
GUNNISON       FAIR      24  12  60 CALM      30.15F
KREMMLING      FAIR      34  19  55 CALM      29.99F
LEADVILLE      FAIR      45  13  27 N5        30.02F
MONARCH PASS   FAIR      28   9  43 W38       30.24S WCI  11
SALIDA         FAIR      54   4  13 SW15G24   30.07F
SUNLIGHT       FAIR      32  14  47 SW24G37   30.11S WCI  19
WILKERSON PASS FAIR      36   7  30 SW16G26   30.09S
$$

COZ069>075-191900-
...SAN LUIS VALLEY/SANGRE DE CRISTO MOUNTAINS...

CITY           SKY/WX    TMP DP  RH WIND       PRES   REMARKS
ALAMOSA        FAIR      35   5  28 CALM      30.11F
DEL NORTE      FAIR      38   9  29 E3        30.11F
LA VETA PASS   FAIR      32  10  40 SW22G33     N/A  WCI  19
SAGUACHE       FAIR      36   9  32 SE3       30.12F
$$

COZ035-036-038>040-191900-
...NORTHERN COLORADO FRONT RANGE...

CITY           SKY/WX    TMP DP  RH WIND       PRES   REMARKS
DENVER INTL AP PTSUNNY   55  18  23 SW13      29.79F
DMNS CITY PARK NOT AVBL
AURORA         PTSUNNY   58  17  20 SW13      29.81F
FRONT RANGE AP PTSUNNY   52  25  35 CALM      29.81S
ERIE MUNI ARPT FAIR      61  15  16 SE8       29.83F
BOULDER MUN AP FAIR      66  19  16 W18G24    29.77F
CENTENNIAL     PTSUNNY   59  10  14 SW14G22   29.81F
BROOMFIELD     PTSUNNY   57  18  21 SE5       29.80F
FORT COLLINS   FAIR      49  24  37 VRB5      29.78F
LONGMONT       FAIR      64  20  18 CALM      29.79F
$$

COZ041-046-047-076>085-087-088-191900-
...PIKES PEAK/PALMER DIVIDE AND SOUTHERN FOOTHILLS...

CITY           SKY/WX    TMP DP  RH WIND       PRES   REMARKS
COLO. SPRINGS  PTSUNNY   54  15  21 E7        29.87F
A. F. ACADEMY  PTSUNNY   59   8  13 W16G25    29.87S
SCHRIEVER AFB  FAIR      55  13  18 CALM      29.86F
CHEYENNE MTN   PTSUNNY   60   9  13 W10G22    29.84F
ELLICOTT         N/A    N/A N/A N/A W10       29.85F
FALCON         FAIR      56   7  14 W9        29.90F
FORT CARSON    SUNNY     56  15  19 NE3       29.84F
LIMON          FAIR      65  18  16 W7        29.81F
MONUMENT HILL  FAIR      52  14  22 CALM      29.91S
CANON CITY     SUNNY     64  14  14 W17       29.87S
WALSENBURG     FAIR      61  12  15 SW9G17    29.92F
TRINIDAD       FAIR      61  16  17 NW12      29.89F
$$

COZ042>045-048>051-090-091-191900-
...NORTHEAST COLORADO...

CITY           SKY/WX    TMP DP  RH WIND       PRES   REMARKS
GREELEY ARPT   FAIR      36  24  62 VRB7      29.79F
AKRON          FAIR      53  19  26 W13       29.76F
BURLINGTON     FAIR      65  16  15 SW20G28   29.75F
WRAY           FAIR      54  18  24 W7        29.72F
YUMA           FAIR      55  18  22 W14       29.74F
STERLING       FAIR      37  23  56 S7        29.75F
HOLYOKE        FAIR      57  23  26 NW6       29.73S
FORT MORGAN    FAIR      44  19  36 W8        29.78S
$$

COZ086-089-092>099-191900-
...SOUTHEAST COLORADO...

CITY           SKY/WX    TMP DP  RH WIND       PRES   REMARKS
PUEBLO         FAIR      64  17  16 W9        29.82F
LA JUNTA       FAIR      53  20  27 MISG      29.82F
LAMAR          FAIR      47  17  30 W7        29.79F
SPRINGFIELD      N/A     67  10  11 SW13      29.81F
$$




USA.gov is the U.S. government's official web portal to all federal, state and local government web resources and services.